Flag for Belarus Weather past 2 weeks in Barysaw, Belarus

Now
50 °F

Passing clouds.


Feels Like: 49 °F
Forecast: 47 / 71 °F
Wind: 3 mph from East

Location: Minsk


UV Index: 3 (Moderate)

Visibility: N/A


Pressure: 30.04 "Hg

Humidity: 62%

Dew point: 37 °F

Location of BarysawLocation

Historic Weather in Barysaw

°F

Barysaw temperature yesterday

Maximum temperature yesterday: 72 °F (at 2:30 PM)
Minimum temperature yesterday: 46 °F (at 2:30 AM)
Average temperature yesterday: 62 °F

Past Weeks' High & Low Weather Summary

 TemperatureHumidityPressure
High72 °F (Apr 20, 2:30 PM)100% (Apr 8, 4:00 AM)30.33 "Hg (Apr 8, 4:00 AM)
Low23 °F (Apr 6, 6:30 AM)18% (Apr 6, 5:00 PM)29.56 "Hg (Apr 15, 3:00 AM)
Average45 °F73%29.99 "Hg
* Reported Midnight between Apr 5 and Apr 6 — Midnight between Apr 20 and Apr 21, Barysaw, Weather by CustomWeather, © 2014

Note: Actual official high and low records may vary slightly from our data, if they occured in-between our weather recording intervals... More about our weather records

Advertising

Historic Weather Conditions — Data for Previous 24 hours

 ConditionsComfort  
Time TempWeatherWind HumidityBarometerVisibility
12:00 AM
Apr 21
54 °FPassing clouds.3 mph54%30.04 "HgN/A
11:30 PM
Apr 20
55 °FClear.3 mph51%30.04 "Hg10 mi
11:00 PM55 °FPassing clouds.3 mph51%30.04 "HgN/A
10:30 PM55 °FClear.3 mph51%30.04 "Hg10 mi
10:00 PM57 °FClear.3 mph48%30.04 "Hg10 mi
9:30 PM59 °FClear.6 mph45%30.04 "Hg10 mi
9:00 PM61 °FSunny.3 mph42%30.04 "Hg10 mi
8:30 PM63 °FSunny.3 mph39%30.04 "Hg10 mi
8:00 PM64 °FSunny.6 mph34%30.01 "Hg10 mi
7:30 PM66 °FSunny.8 mph35%30.01 "Hg10 mi
7:00 PM68 °FSunny.10 mph33%30.01 "Hg10 mi
6:30 PM68 °FPassing clouds.10 mph33%30.01 "HgN/A
6:00 PM70 °FSunny.13 mph29%30.01 "Hg10 mi
5:30 PM70 °FSunny.15 mph31%30.04 "Hg10 mi
5:00 PM70 °FPassing clouds.10 mph29%30.04 "HgN/A
4:30 PM70 °FPassing clouds.15 mph29%30.04 "HgN/A
4:00 PM70 °FPassing clouds.13 mph29%30.04 "HgN/A
3:30 PM68 °FPassing clouds.13 mph30%30.07 "HgN/A
3:00 PM72 °FPassing clouds.13 mph29%30.07 "HgN/A
2:30 PM72 °FPassing clouds.15 mph29%30.07 "HgN/A
2:00 PM68 °FPassing clouds.15 mph33%30.07 "HgN/A
1:30 PM70 °FPassing clouds.13 mph31%30.09 "HgN/A
1:00 PM68 °FSunny.15 mph33%30.09 "Hg10 mi
12:30 PM70 °FSunny.17 mph31%30.09 "Hg10 mi
12:00 PM68 °FPassing clouds.15 mph33%30.09 "HgN/A
11:30 AM68 °FPassing clouds.10 mph38%30.09 "HgN/A
11:00 AM64 °FPassing clouds.10 mph46%30.09 "HgN/A
10:30 AM63 °FSunny.8 mph52%30.12 "Hg10 mi
10:00 AM61 °FPassing clouds.6 mph52%30.12 "HgN/A
9:30 AM59 °FPassing clouds.6 mph55%30.12 "HgN/A
9:00 AM57 °FPassing clouds.6 mph59%30.12 "HgN/A
2:30 AM46 °FClear.1 mph82%30.12 "Hg10 mi
2:00 AM48 °FClear.No wind76%30.12 "Hg10 mi
1:30 AM48 °FClear.No wind82%30.15 "Hg10 mi
1:00 AM48 °FClear.No wind76%30.15 "Hg10 mi
Weather by CustomWeather, © 2014

See weather overview